{"data":{"norad_id":63864,"intl_designator":"2025-094A","name":"STARLINK-33863","alt_names":[],"object_type":"PAYLOAD","status":"ACTIVE","operator":null,"country":"US","launch_date":"2025-05-10","launch_site_code":"AFWTR","launch_vehicle":null,"mission":null,"orbit_class":"UNKNOWN","rcs_meters":null,"size_class":null,"mass_kg":null,"dimensions":null,"purposes":["comms"],"wikipedia_slug":null,"has_3d_model":false,"image_url":null,"decayed_at":null,"tle_current":{"epoch":"2026-09-20T14:24:50.735808Z","epoch_age_seconds":138315,"freshness":"FRESH","line1":"1 63864U 25094A   26263.60058722  .00004076  00000+0  14615-3 0  9992","line2":"2 63864  69.9995 100.8454 0003228 266.1534  93.9272 15.29577974 76450","mean_motion":15.29577974,"eccentricity":0.0003228,"inclination_deg":69.9995,"raan_deg":100.8454,"arg_perigee_deg":266.1534,"mean_anomaly_deg":93.9272,"bstar":0.00014615,"rev_number":7645,"period_min":94.143615067511,"perigee_km":474.86009453359,"apogee_km":479.28581808138,"semimajor_km":6855.2099563075,"source":"CELESTRAK","updated_at":"2026-09-21T09:00:35.137001Z"}}}